This is the latest recevied weather packets stored in our database for station/object KI4HRG. If no packets are shown the sender has not sent any weather packets the latest 10 day(s).
| Time | Temp. | Humidity | Pressure | Rain* | Wind** | Luminosity | Snow |
|---|---|---|---|---|---|---|---|
| 1787849019 | 27.78° C | 81% | 1015.9 hPa | 0 mm | - | 606 W/m² | - |
| 1787848713 | 28.33° C | 79% | 1016 hPa | 0 mm | - | 590 W/m² | - |
| 1787848408 | 27.78° C | 81% | 1016.2 hPa | 0 mm | - | 425 W/m² | - |
| 1787848108 | 27.22° C | 80% | 1016.2 hPa | 0 mm | - | 340 W/m² | - |
| 1787847802 | 27.22° C | 83% | 1016.4 hPa | 0 mm | - | 451 W/m² | - |
| 1787847498 | 27.22° C | 83% | 1016.4 hPa | 0 mm | - | 340 W/m² | - |
| 1787847194 | 27.22° C | 85% | 1016.4 hPa | 0 mm | - | 485 W/m² | - |
| 1787846890 | 26.67° C | 85% | 1016.5 hPa | 0 mm | - | 418 W/m² | - |
| 1787846589 | 26.67° C | 86% | 1016.4 hPa | 0 mm | - | 553 W/m² | - |
| 1787846284 | 26.67° C | 87% | 1016.7 hPa | 0 mm | - | 348 W/m² | - |
| 1787845981 | 26.11° C | 88% | 1016.6 hPa | 0 mm | - | 395 W/m² | - |
| 1787845676 | 25.56° C | 91% | 1016.7 hPa | 0 mm | - | 515 W/m² | - |
| 1787845375 | 25° C | 94% | 1016.6 hPa | 0 mm | - | 379 W/m² | - |
| 1787845072 | 24.44° C | 97% | 1016.7 hPa | 0 mm | - | 265 W/m² | - |
| 1787844768 | 23.89° C | 99% | 1016.7 hPa | 0 mm | - | 233 W/m² | - |
| 1787844466 | 23.33° C | 99% | 1016.5 hPa | 0 mm | - | 208 W/m² | - |
| 1787844161 | 23.33° C | 99% | 1016.8 hPa | 0 mm | - | 173 W/m² | - |
| 1787843860 | 22.78° C | 99% | 1016.6 hPa | 0 mm | - | 146 W/m² | - |
| 1787843556 | 22.78° C | 99% | 1016.5 hPa | 0 mm | - | 132 W/m² | - |
| 1787843252 | 23.33° C | 99% | 1016.6 hPa | 0 mm | - | 126 W/m² | - |
| 1787842948 | 22.78° C | 99% | 1016.5 hPa | 0 mm | - | 125 W/m² | - |
| 1787842647 | 22.78° C | 99% | 1016.5 hPa | 0 mm | - | 125 W/m² | - |
| 1787842343 | 22.78° C | 99% | 1016.4 hPa | 0 mm | - | 121 W/m² | - |
| 1787842042 | 22.78° C | 99% | 1016.4 hPa | 0 mm | - | 118 W/m² | - |
| 1787841738 | 22.78° C | 99% | 1016.4 hPa | 0 mm | - | 117 W/m² | - |
* Rain latest hour (hover to see other rain measurements)
** Current wind speed in m/s (hover to see current wind gust speed)